STARLINK-33688, 63483

Orbit data source: Space-Track

STARLINK-33688, 63483 is a payload satellite owned by SpaceX/Seattle (US) in LEO that was launched on Sun, 06 Apr 2025 UTC via an FALCON 9 launch vehicle from the Air Force Eastern Test Range (AFETR). Payload-class satellites include a variety of spacecraft equipped with specific instruments for various scientific and technological missions. These include communications satellites like Starlink; space stations such as the ISS; scientific satellites like the Hubble; Earth observation satellites from companies like Planet Labs, Umbra, and HawkEye 360; GPS; miniature CubeSats for education and research; and military/defense satellites.

Loading next visibility...
Identifier
63483, 2025-070Z
Orbit
LEO
Country
Flag of USUS
Related business
Manufacturer
SpaceX/Seattle
Mission
Operational Commercial Communications
Bus & Motor
STARLINK V2MO, Unknown motor
Mass
575 kg wet, ~530 kg dry
Launch date (UTC)
2025-04-06 (1 year ago)
Launch vehicle
FALCON 9
Launch site
Air Force Eastern Test Range (AFETR)
Object type
Payload
Rocket body
Debris
Shape & HBR
Box + 2 Pan, 17.7 m
Radar Cross Section
36.964 m², Large (>1 m²)

Expand to show TLE details & history
Last TLE update: 7 hours ago

TLE from 7 hours ago
0 STARLINK-33688
1 63483U 25070Z   26169.96724469  .00011249  00000-0  41764-3 0  9991
2 63483  43.0026  47.9800 0000523 301.5835  58.4966 15.27583638 68464
Epoch: 2026-06-18T23:12Z
TLE epoch observation values (Epoch: 2026-06-18T23:12:49.941Z)
Latitude
0.00002°
Longitude
152.56896°
Altitude
482.626 km
Speed
7.626 km/s
True Right ascension
03h 11m 55s
True Declination
0° 00' 00"
Sunlit
Object was in daylight at epoch
Visualization orbit readout
Latitude
Unknown
Longitude
Unknown
Altitude
Unknown
Speed
Unknown
Apparent Right ascension
Unknown
Apparent Declination
Unknown
Sunlit
N/A
Visualization observer readout
Local Sidereal Time
17:13:29
Azimuth
Unknown
Elevation
Unknown
Doppler factor
Unknown
Orbital elements
Apogee altitude
485.342 km
Perigee altitude
484.624 km
Semi-major axis
6,863.12 km
Eccentricity
0.00005
Inclination
43.0026°
RAAN
47.98°
Arg. of periapsis
301.5835°
True anomaly
58.50171°
Mean anomaly
58.4966°
Eccentric anomaly
58.49915°
Mean motion
3.81734 °/min
Orbital period
94.31 mins
BSTAR
0.00041764
Loading maneuver chart data...
Computing Atmospheric mass density...
Loading historical data...
Loading historical data...
Loading historical data...
Loading historical data...
Loading historical data...
Loading historical data...
Loading historical data...

Documentation

Showing up to 5 results
|